DW3940 Weather Reports


Display with metric or nautical units.
time (UTC)temp
F
wind
direction
speed
MPH
gust
MPH
rain 1hr
in
rain 24hr
in
rain mn
in
humidity
%
barometer
mb
20181117113016 36 286 3.0 15.0 0.00 0.00 0.00 75 1031.1
20181117112516 35 280 7.0 15.0 0.00 0.00 0.00 75 1031.2
20181117112017 35 262 2.0 14.0 0.00 0.00 0.00 77 1031.2
20181117111517 35 279 6.0 14.0 0.00 0.00 0.00 77 1031.4
20181117111016 35 281 4.0 11.0 0.00 0.00 0.00 77 1031.4
20181117110516 35 263 3.0 14.0 0.00 0.00 0.00 76 1031.5
20181117110017 35 265 5.0 14.0 0.00 0.00 0.00 76 1031.6
20181117105517 34 251 4.0 13.0 0.00 0.00 0.00 76 1031.7
20181117105018 34 251 4.0 14.0 0.00 0.00 0.00 75 1031.8
20181117104518 35 271 5.0 14.0 0.00 0.00 0.00 74 1031.9
20181117104018 35 260 3.0 10.0 0.00 0.00 0.00 71 1032.0
20181117103517 35 262 2.0 10.0 0.00 0.00 0.00 70 1032.1
20181117103017 34 275 3.0 15.0 0.00 0.00 0.00 68 1032.2
20181117102517 34 277 4.0 15.0 0.00 0.00 0.00 68 1032.3
20181117102017 34 276 4.0 13.0 0.00 0.00 0.00 67 1032.4
20181117101516 34 281 6.0 16.0 0.00 0.00 0.00 67 1032.4
20181117101017 34 275 9.0 16.0 0.00 0.00 0.00 66 1032.5
20181117100516 35 277 7.0 15.0 0.00 0.00 0.00 65 1032.6
20181117100017 35 285 6.0 15.0 0.00 0.00 0.00 64 1032.5
20181117095516 35 270 7.0 15.0 0.00 0.00 0.00 63 1032.6
20181117095016 35 283 6.0 16.0 0.00 0.00 0.00 63 1032.7
20181117094516 35 281 9.0 16.0 0.00 0.00 0.00 63 1032.7
20181117094016 36 279 8.0 17.0 0.00 0.00 0.00 62 1032.9
20181117093516 36 284 6.0 17.0 0.00 0.00 0.00 61 1032.9
20181117093017 36 282 9.0 15.0 0.00 0.00 0.00 61 1032.9
20181117092516 36 287 5.0 11.0 0.00 0.00 0.00 61 1032.8
20181117092017 36 291 3.0 10.0 0.00 0.00 0.00 62 1032.9
20181117091516 35 274 4.0 11.0 0.00 0.00 0.00 61 1032.9
20181117091017 35 271 6.0 13.0 0.00 0.00 0.00 61 1033.0
20181117090517 35 270 6.0 13.0 0.00 0.00 0.00 61 1033.1
20181117090017 35 278 4.0 10.0 0.00 0.00 0.00 61 1033.2
20181117085516 35 273 5.0 10.0 0.00 0.00 0.00 61 1033.2
20181117085016 35 279 4.0 14.0 0.00 0.00 0.00 61 1033.4
20181117084517 35 281 6.0 15.0 0.00 0.00 0.00 62 1033.6
20181117084016 35 268 4.0 15.0 0.00 0.00 0.00 61 1033.7
20181117083517 34 274 5.0 15.0 0.00 0.00 0.00 62 1033.9
20181117083016 34 267 8.0 16.0 0.00 0.00 0.00 62 1033.8
20181117082516 34 284 8.0 16.0 0.00 0.00 0.00 62 1034.0
20181117082016 33 277 6.0 15.0 0.00 0.00 0.00 62 1034.1
20181117081517 33 281 7.0 15.0 0.00 0.00 0.00 62 1034.1
20181117081017 33 279 7.0 15.0 0.00 0.00 0.00 61 1034.1
20181117080516 33 279 7.0 13.0 0.00 0.00 0.00 61 1034.4
20181117080016 32 283 6.0 14.0 0.00 0.00 0.00 61 1034.4
20181117075516 32 281 8.0 14.0 0.00 0.00 0.00 61 1034.3
20181117075017 32 288 5.0 14.0 0.00 0.00 0.00 61 1034.4
20181117074516 32 273 6.0 14.0 0.00 0.00 0.00 61 1034.3
20181117074016 31 275 6.0 14.0 0.00 0.00 0.00 62 1034.3
20181117073516 31 276 7.0 14.0 0.00 0.00 0.00 62 1034.4
20181117073016 31 276 5.0 13.0 0.00 0.00 0.00 62 1034.5
20181117072516 31 276 7.0 16.0 0.00 0.00 0.00 62 1034.7
20181117072016 30 276 7.0 16.0 0.00 0.00 0.00 62 1034.8
20181117071516 30 284 4.0 13.0 0.00 0.00 0.00 63 1035.0
20181117071016 30 278 8.0 15.0 0.00 0.00 0.00 62 1035.1
20181117070516 30 285 6.0 15.0 0.00 0.00 0.00 63 1034.9
20181117070016 30 277 4.0 13.0 0.00 0.00 0.00 64 1035.0
20181117065516 29 277 6.0 13.0 0.00 0.00 0.00 64 1035.1
20181117065016 29 279 7.0 13.0 0.00 0.00 0.00 64 1035.2
20181117064516 29 282 5.0 12.0 0.00 0.00 0.00 65 1035.2
20181117064017 29 282 6.0 12.0 0.00 0.00 0.00 65 1035.3
20181117063516 29 284 5.0 11.0 0.00 0.00 0.00 65 1035.3
20181117063017 29 283 5.0 11.0 0.00 0.00 0.00 66 1035.4
20181117062516 28 278 3.0 9.0 0.00 0.00 0.00 67 1035.5
20181117062016 28 280 4.0 9.0 0.00 0.00 0.00 67 1035.7
20181117061516 28 285 3.0 8.0 0.00 0.00 0.00 67 1035.8
20181117061016 28 281 2.0 11.0 0.00 0.00 0.00 68 1035.9
20181117060516 28 282 5.0 11.0 0.00 0.00 0.00 68 1036.0
20181117060017 28 280 6.0 11.0 0.00 0.00 0.00 68 1036.1
20181117055516 28 282 6.0 12.0 0.00 0.00 0.00 67 1036.2
20181117055016 28 279 5.0 12.0 0.00 0.00 0.00 68 1036.1
20181117054516 28 279 7.0 15.0 0.00 0.00 0.00 67 1036.1
20181117054016 28 281 7.0 15.0 0.00 0.00 0.00 67 1036.1
20181117053516 28 282 7.0 14.0 0.00 0.00 0.00 66 1036.0
20181117053016 28 283 5.0 14.0 0.00 0.00 0.00 66 1036.1
20181117052516 28 282 6.0 14.0 0.00 0.00 0.00 66 1036.2
20181117052016 28 281 7.0 14.0 0.00 0.00 0.00 66 1036.4
20181117051516 28 282 5.0 13.0 0.00 0.00 0.00 65 1036.4
20181117051016 29 281 5.0 12.0 0.00 0.00 0.00 66 1036.4
20181117050516 29 279 6.0 13.0 0.00 0.00 0.00 65 1036.5
20181117050016 29 285 5.0 13.0 0.00 0.00 0.00 65 1036.6
20181117045516 29 285 4.0 11.0 0.00 0.00 0.00 65 1036.6
20181117045016 29 278 6.0 12.0 0.00 0.00 0.00 65 1036.7
20181117044516 29 282 5.0 12.0 0.00 0.00 0.00 65 1036.7
20181117044016 29 282 6.0 12.0 0.00 0.00 0.00 64 1036.8
20181117043516 29 283 6.0 12.0 0.00 0.00 0.00 64 1036.7
20181117043016 29 286 6.0 12.0 0.00 0.00 0.00 64 1036.7
20181117042516 29 277 4.0 11.0 0.00 0.00 0.00 64 1036.8
20181117042016 29 273 5.0 11.0 0.00 0.00 0.00 64 1036.8
20181117041516 29 276 6.0 13.0 0.00 0.00 0.00 65 1036.7
20181117041016 29 279 7.0 13.0 0.00 0.00 0.00 65 1036.9
20181117040516 29 280 6.0 13.0 0.00 0.00 0.00 66 1036.9
20181117040016 29 273 5.0 13.0 0.00 0.00 0.00 66 1036.9
20181117035516 29 273 4.0 10.0 0.00 0.00 0.00 67 1037.0
20181117035016 29 280 5.0 10.0 0.00 0.00 0.00 67 1037.1
20181117034516 29 287 4.0 11.0 0.00 0.00 0.00 67 1037.2
20181117034016 29 285 4.0 11.0 0.00 0.00 0.00 67 1037.2
20181117033516 29 281 3.0 11.0 0.00 0.00 0.00 67 1037.2
20181117033016 29 282 6.0 11.0 0.00 0.00 0.00 67 1037.2
20181117032516 29 279 3.0 13.0 0.00 0.00 0.00 67 1037.3
20181117032018 29 272 6.0 13.0 0.00 0.00 0.00 66 1037.2
20181117031518 29 273 5.0 11.0 0.00 0.00 0.00 67 1037.3
20181117031018 29 271 5.0 11.0 0.00 0.00 0.00 67 1037.3
20181117030518 29 276 4.0 11.0 0.00 0.00 0.00 67 1037.5
20181117030018 29 273 4.0 9.0 0.00 0.00 0.00 66 1037.6
20181117025518 30 271 2.0 13.0 0.00 0.00 0.00 67 1037.7
20181117025018 30 276 4.0 13.0 0.00 0.00 0.00 67 1037.6
20181117024518 30 274 3.0 11.0 0.00 0.00 0.00 67 1037.6
20181117024018 30 279 3.0 11.0 0.00 0.00 0.00 67 1037.7
20181117023518 29 271 4.0 11.0 0.00 0.00 0.00 67 1037.7
20181117023018 29 276 5.0 11.0 0.00 0.00 0.00 67 1037.7
20181117022518 30 278 3.0 8.0 0.00 0.00 0.00 67 1037.7
20181117022018 30 269 3.0 9.0 0.00 0.00 0.00 66 1037.9
20181117021518 30 270 3.0 9.0 0.00 0.00 0.00 67 1038.0
20181117021018 30 273 2.0 9.0 0.00 0.00 0.00 67 1037.9
20181117020518 30 268 3.0 10.0 0.00 0.00 0.00 67 1037.9
20181117020017 30 254 2.0 10.0 0.00 0.00 0.00 66 1038.0
20181117015518 30 271 2.0 10.0 0.00 0.00 0.00 67 1037.9
20181117015018 30 267 2.0 9.0 0.00 0.00 0.00 67 1038.1
20181117014518 30 255 2.0 9.0 0.00 0.00 0.00 66 1038.2
20181117014018 30 259 1.0 10.0 0.00 0.00 0.00 66 1038.3
20181117013518 30 278 2.0 10.0 0.00 0.00 0.00 66 1038.3
20181117013018 30 268 1.0 9.0 0.00 0.00 0.00 65 1038.5
20181117012517 30 278 4.0 9.0 0.00 0.00 0.00 65 1038.6
20181117012017 30 275 4.0 8.0 0.00 0.00 0.00 65 1038.6
20181117011518 30 277 2.0 8.0 0.00 0.00 0.00 65 1038.7
20181117011018 30 288 1.0 8.0 0.00 0.00 0.00 65 1038.8
20181117010517 30 285 2.0 8.0 0.00 0.00 0.00 64 1038.8
20181117010017 30 286 2.0 6.0 0.00 0.00 0.00 64 1038.9
20181117005517 30 282 2.0 6.0 0.00 0.00 0.00 64 1039.1
20181117005017 30 277 2.0 7.0 0.00 0.00 0.00 64 1039.1
20181117004517 30 281 2.0 8.0 0.00 0.00 0.00 63 1039.2
20181117004017 30 276 2.0 8.0 0.00 0.00 0.00 63 1039.3
20181117003517 30 276 2.0 8.0 0.00 0.00 0.00 63 1039.3
20181117003018 30 280 2.0 9.0 0.00 0.00 0.00 63 1039.3
20181117002518 30 274 2.0 9.0 0.00 0.00 0.00 63 1039.4
20181117002018 30 290 0.0 5.0 0.00 0.00 0.00 62 1039.5
20181117001517 30 283 1.0 7.0 0.00 0.00 0.00 63 1039.6
20181117001017 30 287 2.0 7.0 0.00 0.00 0.00 63 1039.7
20181117000517 30 276 2.0 7.0 0.00 0.00 0.00 62 1039.7
20181117000018 30 279 1.0 7.0 0.00 0.00 0.00 62 1039.7
20181116235517 30 275 2.0 7.0 0.00 0.00 0.00 62 1039.7
20181116235018 30 292 1.0 8.0 0.00 0.00 0.00 62 1039.8
20181116234517 30 278 2.0 8.0 0.00 0.00 0.00 62 1039.8
20181116234017 30 275 2.0 8.0 0.00 0.00 0.00 61 1039.8
20181116233518 31 277 2.0 8.0 0.00 0.00 0.00 61 1039.9
20181116233017 31 284 2.0 11.0 0.00 0.00 0.00 61 1040.0
20181116232517 30 279 4.0 11.0 0.00 0.00 0.00 60 1040.0
20181116232018 31 277 3.0 10.0 0.00 0.00 0.00 60 1040.2
20181116231017 31 283 4.0 13.0 0.00 0.00 0.00 60 1040.4
20181116230517 31 278 7.0 13.0 0.00 0.00 0.00 59 1040.4
20181116230017 31 279 4.0 13.0 0.00 0.00 0.00 59 1040.4
20181116225517 31 276 4.0 13.0 0.00 0.00 0.00 60 1040.5
20181116225017 31 272 4.0 10.0 0.00 0.00 0.00 60 1040.5
20181116224517 31 283 3.0 9.0 0.00 0.00 0.00 60 1040.5
20181116224017 31 277 3.0 9.0 0.00 0.00 0.00 59 1040.5
20181116223517 31 274 2.0 9.0 0.00 0.00 0.00 60 1040.5
20181116223017 31 275 2.0 8.0 0.00 0.00 0.00 59 1040.5
20181116222517 31 280 3.0 8.0 0.00 0.00 0.00 60 1040.6
20181116222017 30 281 2.0 8.0 0.00 0.00 0.00 60 1040.6
20181116221517 30 281 2.0 9.0 0.00 0.00 0.00 59 1040.6
20181116221017 30 276 3.0 9.0 0.00 0.00 0.00 58 1040.7
20181116220517 30 285 2.0 9.0 0.00 0.00 0.00 59 1040.7
20181116220017 30 275 1.0 6.0 0.00 0.00 0.00 58 1040.8
20181116215517 30 280 2.0 7.0 0.00 0.00 0.00 58 1040.9
20181116215017 30 282 2.0 7.0 0.00 0.00 0.00 58 1041.0
20181116214517 30 284 2.0 8.0 0.00 0.00 0.00 59 1041.0
20181116214017 29 284 2.0 8.0 0.00 0.00 0.00 59 1041.0
20181116213517 29 277 4.0 8.0 0.00 0.00 0.00 58 1041.1
20181116213017 29 275 4.0 7.0 0.00 0.00 0.00 58 1041.2
20181116212518 29 280 3.0 8.0 0.00 0.00 0.00 59 1041.3
20181116212017 29 279 4.0 8.0 0.00 0.00 0.00 58 1041.3
20181116211517 29 287 2.0 7.0 0.00 0.00 0.00 59 1041.4
20181116211017 29 281 3.0 7.0 0.00 0.00 0.00 59 1041.5
20181116210517 29 281 3.0 7.0 0.00 0.00 0.00 58 1041.5
20181116210018 29 283 2.0 7.0 0.00 0.00 0.00 59 1041.5
20181116205518 29 278 2.0 7.0 0.00 0.00 0.00 58 1041.5
20181116205018 29 281 3.0 8.0 0.00 0.00 0.00 58 1041.5
20181116204518 29 285 4.0 9.0 0.00 0.00 0.00 58 1041.6
20181116204018 29 283 4.0 9.0 0.00 0.00 0.00 58 1041.5
20181116203518 29 283 4.0 9.0 0.00 0.00 0.00 58 1041.5
20181116203018 29 284 5.0 9.0 0.00 0.00 0.00 58 1041.5
20181116202518 29 282 4.0 8.0 0.00 0.00 0.00 58 1041.4
20181116202018 30 283 4.0 8.0 0.00 0.00 0.00 58 1041.4
20181116201518 30 288 4.0 7.0 0.00 0.00 0.00 57 1041.5
20181116201018 30 286 2.0 6.0 0.00 0.00 0.00 58 1041.4
20181116200518 31 282 1.0 5.0 0.00 0.00 0.00 58 1041.5
20181116200018 31 290 2.0 5.0 0.00 0.00 0.00 58 1041.4
20181116195518 31 288 1.0 4.0 0.00 0.00 0.00 58 1041.4
20181116195018 31 294 1.0 4.0 0.00 0.00 0.00 58 1041.4
20181116194518 31 297 1.0 4.0 0.00 0.00 0.00 58 1041.4
20181116194017 31 285 1.0 7.0 0.00 0.00 0.00 58 1041.3
20181116193517 31 278 2.0 8.0 0.00 0.00 0.00 57 1041.4
20181116193017 31 276 2.0 8.0 0.00 0.00 0.00 57 1041.5
20181116192517 31 291 1.0 7.0 0.00 0.00 0.00 57 1041.5
20181116192017 31 293 1.0 7.0 0.00 0.00 0.00 57 1041.5
20181116191517 31 280 2.0 7.0 0.00 0.00 0.00 57 1041.5
20181116191017 31 278 2.0 6.0 0.00 0.00 0.00 57 1041.6
20181116190517 31 280 2.0 6.0 0.00 0.00 0.00 56 1041.6
20181116190017 31 291 2.0 6.0 0.00 0.00 0.00 57 1041.6
20181116185517 31 276 1.0 4.0 0.00 0.00 0.00 57 1041.7
20181116185017 31 272 1.0 4.0 0.00 0.00 0.00 57 1041.7
20181116184518 31 280 1.0 6.0 0.00 0.00 0.00 57 1041.8
20181116184018 31 288 1.0 6.0 0.00 0.00 0.00 57 1041.8
20181116183517 31 275 1.0 6.0 0.00 0.00 0.00 56 1041.9
20181116183017 31 281 2.0 8.0 0.00 0.00 0.00 56 1041.9
20181116182518 31 284 1.0 8.0 0.00 0.00 0.00 56 1041.9
20181116182017 31 278 1.0 7.0 0.00 0.00 0.00 56 1041.8
20181116181517 31 266 1.0 7.0 0.00 0.00 0.00 56 1041.8
20181116181017 31 273 1.0 7.0 0.00 0.00 0.00 56 1041.9
20181116180518 32 276 0.0 4.0 0.00 0.00 0.00 56 1041.9
20181116180018 32 272 0.0 3.0 0.00 0.00 0.00 56 1042.0
20181116175517 32 270 1.0 3.0 0.00 0.00 0.00 55 1042.0
20181116175017 32 271 0.0 3.0 0.00 0.00 0.00 56 1042.0
20181116174517 32 272 0.0 4.0 0.00 0.00 0.00 55 1042.0
20181116174017 32 262 0.0 4.0 0.00 0.00 0.00 54 1042.0
20181116173517 32 288 0.0 3.0 0.00 0.00 0.00 55 1042.0
20181116173018 31 263 0.0 3.0 0.00 0.00 0.00 55 1042.0
20181116172518 31 253 0.0 3.0 0.00 0.00 0.00 53 1042.1
20181116172017 32 296 1.0 3.0 0.00 0.00 0.00 53 1042.1
20181116171517 32 303 0.0 3.0 0.00 0.00 0.00 52 1042.2
20181116171017 33 303 1.0 3.0 0.00 0.00 0.00 52 1042.2
20181116170517 32 303 0.0 3.0 0.00 0.00 0.00 53 1042.3
20181116170017 32 283 0.0 3.0 0.00 0.00 0.00 52 1042.2
20181116165517 32 256 0.0 4.0 0.00 0.00 0.00 52 1042.2
20181116165017 33 259 0.0 4.0 0.00 0.00 0.00 51 1042.2
20181116164517 33 259 1.0 4.0 0.00 0.00 0.00 51 1042.3
20181116164017 33 252 1.0 4.0 0.00 0.00 0.00 51 1042.3
20181116163517 33 226 1.0 3.0 0.00 0.00 0.00 51 1042.3
20181116163017 33 229 0.0 3.0 0.00 0.00 0.00 51 1042.4
20181116162517 33 228 0.0 3.0 0.00 0.00 0.00 51 1042.3
20181116162017 33 253 0.0 3.0 0.00 0.00 0.00 51 1042.3
20181116161517 33 258 0.0 2.0 0.00 0.00 0.00 50 1042.4
20181116161017 33 262 0.0 2.0 0.00 0.00 0.00 51 1042.4
20181116160517 33 0.0 2.0 0.00 0.00 0.00 50 1042.5
20181116160018 33 265 0.0 2.0 0.00 0.00 0.00 49 1042.5
20181116155517 33 265 0.0 2.0 0.00 0.00 0.00 49 1042.6
20181116155018 33 261 0.0 2.0 0.00 0.00 0.00 49 1042.6
20181116154517 33 255 0.0 2.0 0.00 0.00 0.00 50 1042.6
20181116154017 33 254 0.0 2.0 0.00 0.00 0.00 49 1042.6
20181116153517 33 258 0.0 4.0 0.00 0.00 0.00 49 1042.6
20181116153017 33 291 1.0 4.0 0.00 0.00 0.00 48 1042.6
20181116152517 33 274 1.0 2.0 0.00 0.00 0.00 48 1042.5
20181116152017 33 265 0.0 2.0 0.00 0.00 0.00 49 1042.6
20181116151517 33 265 0.0 4.0 0.00 0.00 0.00 48 1042.6
20181116151017 33 263 1.0 4.0 0.00 0.00 0.00 48 1042.5
20181116150517 33 280 0.0 3.0 0.00 0.00 0.00 48 1042.6
20181116150017 33 280 0.0 3.0 0.00 0.00 0.00 49 1042.6
20181116145517 33 280 0.0 3.0 0.00 0.00 0.00 48 1042.7
20181116145017 33 280 0.0 3.0 0.00 0.00 0.00 47 1042.7
20181116144517 33 280 0.0 4.0 0.00 0.00 0.00 47 1042.7
20181116144017 34 280 0.0 4.0 0.00 0.00 0.00 46 1042.7
20181116143517 34 280 1.0 2.0 0.00 0.00 0.00 46 1042.7
20181116143018 34 280 0.0 2.0 0.00 0.00 0.00 46 1042.7
20181116142517 34 280 0.0 2.0 0.00 0.00 0.00 45 1042.8
20181116142017 34 280 0.0 2.0 0.00 0.00 0.00 44 1042.9
20181116141517 34 280 0.0 2.0 0.00 0.00 0.00 45 1042.9
20181116141017 34 280 0.0 2.0 0.00 0.00 0.00 45 1042.9
20181116140517 34 280 0.0 2.0 0.00 0.00 0.00 45 1042.9
20181116140017 34 280 0.0 2.0 0.00 0.00 0.00 43 1043.0
20181116135517 34 0.0 2.0 0.00 0.00 0.00 43 1043.0
20181116135017 35 280 0.0 2.0 0.00 0.00 0.00 44 1043.0
20181116134517 35 280 0.0 2.0 0.00 0.00 0.00 42 1043.0
20181116134018 35 280 0.0 1.0 0.00 0.00 0.00 42 1043.1
20181116133517 35 280 0.0 2.0 0.00 0.00 0.00 42 1043.1
20181116133017 35 280 0.0 2.0 0.00 0.00 0.00 41 1043.0
20181116132517 35 280 0.0 1.0 0.00 0.00 0.00 41 1043.0
20181116132017 35 280 0.0 4.0 0.00 0.00 0.00 41 1042.9
20181116131517 35 275 0.0 4.0 0.00 0.00 0.00 40 1042.9
20181116131017 35 229 0.0 5.0 0.00 0.00 0.00 40 1042.9
20181116130517 36 219 1.0 5.0 0.00 0.00 0.00 39 1042.9
20181116130017 36 222 2.0 6.0 0.00 0.00 0.00 38 1042.9
20181116125517 36 223 2.0 6.0 0.00 0.00 0.00 37 1042.9
20181116125017 37 218 0.0 2.0 0.00 0.00 0.00 39 1042.9
20181116124517 36 188 0.0 4.0 0.00 0.00 0.00 39 1042.9
20181116124017 36 231 1.0 5.0 0.00 0.00 0.00 38 1042.9
20181116123517 36 225 2.0 5.0 0.00 0.00 0.00 37 1042.9
20181116123017 37 227 1.0 5.0 0.00 0.00 0.00 38 1042.9
20181116122517 37 226 2.0 5.0 0.00 0.00 0.00 37 1043.0
20181116122017 38 199 1.0 4.0 0.00 0.00 0.00 37 1043.0
20181116121517 38 278 1.0 4.0 0.00 0.00 0.00 37 1043.1
20181116121017 38 226 0.0 2.0 0.00 0.00 0.00 39 1043.1
20181116120517 37 196 0.0 4.0 0.00 0.00 0.00 39 1043.1
20181116120017 37 209 1.0 6.0 0.00 0.00 0.00 38 1043.2
20181116115517 37 211 1.0 6.0 0.00 0.00 0.00 38 1043.3
20181116115017 37 250 1.0 7.0 0.00 0.00 0.00 38 1043.2
20181116114517 37 257 2.0 7.0 0.00 0.00 0.00 38 1043.2
20181116114017 37 215 1.0 5.0 0.00 0.00 0.00 38 1043.2
20181116113517 37 217 2.0 6.0 0.00 0.00 0.00 38 1043.3